GW2685 Weather Reports


Display with metric or nautical units.
time (UTC)temp
F
wind
direction
speed
MPH
gust
MPH
rain 1hr
in
rain 24hr
in
rain mn
in
humidity
%
barometer
mb
20260507024533 36 344 3.0 5.0 0.02 0.16 0.16 91 1012.9
20260507023034 36 335 4.0 7.0 0.04 0.16 0.16 91 1012.8
20260507021534 36 13 4.0 7.0 0.06 0.16 0.16 90 1012.7
20260507020031 37 39 2.0 3.0 0.05 0.14 0.14 91 1012.6
20260507014543 37 256 2.0 2.0 0.05 0.14 0.14 90 1012.6
20260507013031 37 207 4.0 11.0 0.03 0.12 0.12 88 1012.7
20260507011533 39 245 0.0 7.0 0.01 0.10 0.10 86 1012.6
20260507010035 40 248 1.0 4.0 0.00 0.09 0.09 83 1012.3
20260507004532 41 146 0.0 5.0 0.04 0.09 0.09 80 1012.2
20260507003033 40 0 2.0 5.0 0.04 0.09 0.09 85 1012.2
20260507001532 40 169 1.0 8.0 0.05 0.09 0.09 87 1012.2
20260507000038 38 153 3.0 11.0 0.05 0.09 0.09 87 1012.3
20260506234532 40 138 3.0 6.0 0.02 0.05 0.05 85 1011.9
20260506233035 40 227 0.0 2.0 0.02 0.05 0.05 84 1011.8
20260506231531 40 325 2.0 5.0 0.02 0.04 0.04 84 1011.6
20260506230034 40 15 4.0 6.0 0.04 0.04 0.04 85 1011.7
20260506224533 40 23 4.0 6.0 0.03 0.03 0.03 83 1011.6
20260506223032 41 343 1.0 5.0 0.03 0.03 0.03 81 1011.6
20260506221532 40 119 0.0 4.0 0.02 0.02 0.02 81 1011.5
20260506220033 40 333 3.0 8.0 0.00 0.00 0.00 80 1011.4
20260506214533 40 9 5.0 9.0 0.00 0.00 0.00 80 1011.2
20260506213033 40 24 6.0 9.0 0.00 0.00 0.00 80 1011.2
20260506211534 40 351 5.0 10.0 0.00 0.00 0.00 79 1011.1
20260506210032 40 22 7.0 12.0 0.00 0.00 0.00 79 1011.0
20260506204534 41 323 8.0 13.0 0.00 0.00 0.00 78 1010.8
20260506203030 41 300 1.0 4.0 0.00 0.00 0.00 76 1010.7
20260506201532 41 0 0.0 5.0 0.00 0.00 0.00 77 1010.7
20260506200031 40 18 2.0 5.0 0.00 0.00 0.00 78 1010.6
20260506194536 40 39 1.0 5.0 0.00 0.00 0.00 78 1010.5
20260506193032 40 57 1.0 6.0 0.00 0.00 0.00 80 1010.4
20260506191535 40 24 3.0 5.0 0.00 0.00 0.00 79 1010.3
20260506190032 39 239 2.0 4.0 0.00 0.00 0.00 79 1010.2
20260506184531 41 0 0.0 1.0 0.00 0.00 0.00 77 1010.3
20260506183029 40 232 1.0 2.0 0.00 0.00 0.00 76 1010.4
20260506181530 40 194 1.0 3.0 0.00 0.00 0.00 77 1010.2
20260506180034 41 146 0.0 2.0 0.00 0.00 0.00 76 1010.0
20260506174531 40 0 0.0 1.0 0.00 0.00 0.00 75 1010.1
20260506173035 39 0 1.0 3.0 0.00 0.00 0.00 76 1009.9
20260506171532 38 24 2.0 3.0 0.00 0.00 0.00 80 1009.8
20260506170030 38 0 0.0 0.0 0.00 0.00 0.00 80 1009.7
20260506164532 38 0 0.0 0.0 0.00 0.00 0.00 83 1009.6
20260506163053 37 322 1.0 2.0 0.00 0.00 0.00 83 1009.6
20260506161533 37 0 0.0 2.0 0.00 0.00 0.00 85 1009.5
20260506160032 36 74 0.0 2.0 0.00 0.00 0.00 88 1009.4
20260506154532 35 346 1.0 2.0 0.00 0.00 0.00 89 1009.4
20260506153031 34 50 1.0 1.0 0.00 0.00 0.00 90 1009.4
20260506151532 34 346 2.0 4.0 0.00 0.00 0.00 89 1009.3
20260506150030 34 344 2.0 5.0 0.00 0.00 0.00 90 1009.3
20260506144532 33 352 2.0 3.0 0.00 0.00 0.00 91 1009.1
20260506143040 33 344 3.0 4.0 0.00 0.00 0.00 92 1009.3
20260506141535 33 24 2.0 2.0 0.00 0.00 0.00 92 1009.2
20260506140032 33 49 1.0 2.0 0.00 0.00 0.00 91 1009.2
20260506134530 34 28 2.0 3.0 0.00 0.00 0.00 90 1009.3
20260506133030 33 321 1.0 3.0 0.00 0.00 0.00 91 1009.3
20260506131532 35 48 2.0 5.0 0.00 0.00 0.00 89 1009.1
20260506130031 33 25 3.0 4.0 0.00 0.00 0.00 90 1009.2
20260506124533 34 29 3.0 4.0 0.00 0.00 0.00 90 1009.2
20260506123035 35 334 2.0 2.0 0.00 0.00 0.00 88 1009.1
20260506121538 35 306 0.0 1.0 0.00 0.00 0.00 87 1009.2
20260506120030 35 46 0.0 4.0 0.00 0.00 0.00 87 1008.9
20260506114542 35 350 2.0 4.0 0.00 0.00 0.00 85 1008.9
20260506113034 36 348 3.0 4.0 0.00 0.00 0.00 83 1008.9
20260506111537 36 328 1.0 3.0 0.00 0.00 0.00 82 1008.7
20260506110033 36 18 2.0 3.0 0.00 0.00 0.00 82 1008.8
20260506104533 36 40 1.0 4.0 0.00 0.00 0.00 82 1008.7
20260506103032 36 301 3.0 4.0 0.00 0.00 0.00 80 1008.5
20260506101534 35 299 0.0 3.0 0.00 0.00 0.00 82 1008.7
20260506100031 36 36 0.0 2.0 0.00 0.00 0.00 81 1008.3
20260506094530 37 38 2.0 5.0 0.00 0.00 0.00 79 1008.2
20260506093032 36 15 4.0 5.0 0.00 0.00 0.00 82 1008.3
20260506091532 37 286 2.0 3.0 0.00 0.00 0.00 78 1008.1
20260506090032 36 30 3.0 3.0 0.00 0.00 0.00 81 1008.0
20260506084529 36 335 3.0 4.0 0.00 0.00 0.00 81 1007.9
20260506083032 37 0 0.0 3.0 0.00 0.00 0.00 80 1007.9
20260506081535 36 292 0.0 2.0 0.00 0.00 0.00 82 1007.8
20260506073030 36 32 3.0 4.0 0.00 0.00 0.00 82 1007.3
20260506071535 37 313 3.0 5.0 0.00 0.00 0.00 80 1007.2
20260506061535 38 324 2.0 3.0 0.00 0.00 0.00 76 1006.8
20260506044542 42 45 2.0 4.0 0.00 0.00 0.00 69 1006.0
20260506043032 42 308 2.0 8.0 0.00 0.00 0.00 69 1005.8
20260506041531 42 342 4.0 7.0 0.00 0.00 0.00 69 1005.8
20260506040050 43 344 4.0 7.0 0.00 0.00 0.00 68 1005.9
20260506034534 43 317 5.0 11.0 0.00 0.00 0.00 68 1005.8
20260506033031 44 17 6.0 12.0 0.00 0.00 0.00 68 1005.7
20260506031542 43 24 8.0 10.0 0.00 0.00 0.00 68 1005.6
20260506030031 43 16 7.0 11.0 0.00 0.00 0.00 69 1005.5